| time (UTC) | temp F | wind direction | speed MPH | gust MPH | rain 1hr in | rain 24hr in | rain mn in | humidity % | barometer mb |
| 20260508202546 | 58 | 126 | 3.0 | 10.0 | 0.00 | 0.00 | 0.00 | 55 | 1018.5 |
| 20260508202045 | 58 | 137 | 4.0 | 10.0 | 0.00 | 0.00 | 0.00 | 55 | 1018.6 |
| 20260508201554 | 58 | 171 | 2.0 | 8.0 | 0.00 | 0.00 | 0.00 | 55 | 1018.5 |
| 20260508201045 | 58 | 95 | 2.0 | 8.0 | 0.00 | 0.00 | 0.00 | 53 | 1018.7 |
| 20260508200546 | 58 | 71 | 2.0 | 8.0 | 0.00 | 0.00 | 0.00 | 55 | 1018.6 |
| 20260508200056 | 58 | 115 | 3.0 | 9.0 | 0.00 | 0.00 | 0.00 | 55 | 1018.6 |
| 20260508195546 | 58 | 0 | 3.0 | 9.0 | 0.00 | 0.01 | 0.00 | 57 | 1018.7 |
| 20260508195045 | 58 | 48 | 3.0 | 9.0 | 0.00 | 0.01 | 0.00 | 56 | 1018.8 |
| 20260508194547 | 58 | 71 | 2.0 | 7.0 | 0.00 | 0.01 | 0.00 | 57 | 1018.8 |
| 20260508194047 | 58 | 135 | 2.0 | 8.0 | 0.00 | 0.01 | 0.00 | 56 | 1018.8 |
| 20260508193545 | 57 | 0 | 0.0 | 9.0 | 0.00 | 0.01 | 0.00 | 57 | 1018.8 |
| 20260508193058 | 57 | 75 | 2.0 | 9.0 | 0.00 | 0.01 | 0.00 | 58 | 1018.9 |
| 20260508192545 | 57 | 131 | 2.0 | 9.0 | 0.00 | 0.01 | 0.00 | 59 | 1018.9 |
| 20260508192046 | 56 | 0 | 2.0 | 11.0 | 0.00 | 0.01 | 0.00 | 59 | 1018.8 |
| 20260508191556 | 56 | 49 | 5.0 | 11.0 | 0.00 | 0.01 | 0.00 | 57 | 1018.8 |
| 20260508191045 | 56 | 129 | 3.0 | 10.0 | 0.00 | 0.01 | 0.00 | 56 | 1018.9 |
| 20260508190546 | 56 | 0 | 2.0 | 8.0 | 0.00 | 0.01 | 0.00 | 59 | 1018.9 |
| 20260508190052 | 56 | 83 | 2.0 | 8.0 | 0.00 | 0.01 | 0.00 | 60 | 1019.0 |
| 20260508185545 | 56 | 61 | 1.0 | 10.0 | 0.00 | 0.04 | 0.00 | 58 | 1019.0 |
| 20260508185045 | 56 | 0 | 0.0 | 10.0 | 0.00 | 0.04 | 0.00 | 60 | 1019.1 |
| 20260508184555 | 55 | 51 | 0.0 | 9.0 | 0.00 | 0.04 | 0.00 | 62 | 1019.1 |
| 20260508184046 | 55 | 0 | 0.0 | 9.0 | 0.00 | 0.04 | 0.00 | 61 | 1019.2 |
| 20260508183545 | 55 | 0 | 3.0 | 9.0 | 0.00 | 0.04 | 0.00 | 58 | 1019.3 |
| 20260508183055 | 55 | 0 | 1.0 | 6.0 | 0.00 | 0.04 | 0.00 | 61 | 1019.2 |
| 20260508182545 | 55 | 0 | 0.0 | 6.0 | 0.00 | 0.04 | 0.00 | 61 | 1019.3 |
| 20260508182044 | 55 | 87 | 1.0 | 14.0 | 0.00 | 0.04 | 0.00 | 60 | 1019.3 |
| 20260508181554 | 55 | 0 | 3.0 | 14.0 | 0.00 | 0.04 | 0.00 | 58 | 1019.4 |
| 20260508181046 | 55 | 0 | 1.0 | 9.0 | 0.00 | 0.04 | 0.00 | 60 | 1019.3 |
| 20260508180545 | 55 | 90 | 1.0 | 7.0 | 0.00 | 0.04 | 0.00 | 59 | 1019.4 |
| 20260508180056 | 55 | 142 | 0.0 | 11.0 | 0.00 | 0.04 | 0.00 | 61 | 1019.5 |
| 20260508175547 | 55 | 103 | 2.0 | 11.0 | 0.00 | 0.09 | 0.00 | 61 | 1019.4 |
| 20260508175046 | 55 | 69 | 1.0 | 7.0 | 0.00 | 0.09 | 0.00 | 61 | 1019.4 |
| 20260508174557 | 54 | 80 | 0.0 | 9.0 | 0.00 | 0.09 | 0.00 | 61 | 1019.5 |
| 20260508174045 | 55 | 105 | 0.0 | 12.0 | 0.00 | 0.09 | 0.00 | 63 | 1019.6 |
| 20260508173546 | 55 | 31 | 4.0 | 12.0 | 0.00 | 0.09 | 0.00 | 61 | 1019.6 |
| 20260508173051 | 55 | 107 | 4.0 | 9.0 | 0.00 | 0.09 | 0.00 | 61 | 1019.6 |
| 20260508172545 | 55 | 130 | 1.0 | 6.0 | 0.00 | 0.09 | 0.00 | 63 | 1019.5 |
| 20260508172045 | 55 | 86 | 0.0 | 7.0 | 0.00 | 0.09 | 0.00 | 64 | 1019.6 |
| 20260508171607 | 54 | 92 | 0.0 | 7.0 | 0.00 | 0.09 | 0.00 | 63 | 1019.6 |
| 20260508171048 | 54 | 57 | 1.0 | 8.0 | 0.00 | 0.09 | 0.00 | 62 | 1019.5 |
| 20260508170547 | 54 | 44 | 2.0 | 12.0 | 0.00 | 0.09 | 0.00 | 63 | 1019.5 |
| 20260508170058 | 54 | 29 | 3.0 | 12.0 | 0.00 | 0.09 | 0.00 | 61 | 1019.5 |
| 20260508165546 | 54 | 86 | 3.0 | 9.0 | 0.00 | 0.13 | 0.00 | 57 | 1019.6 |
| 20260508165045 | 55 | 0 | 3.0 | 12.0 | 0.00 | 0.13 | 0.00 | 54 | 1019.6 |
| 20260508164551 | 56 | 0 | 1.0 | 12.0 | 0.00 | 0.13 | 0.00 | 56 | 1019.6 |
| 20260508164045 | 57 | 71 | 5.0 | 12.0 | 0.00 | 0.13 | 0.00 | 54 | 1019.6 |
| 20260508163545 | 57 | 0 | 1.0 | 9.0 | 0.00 | 0.13 | 0.00 | 54 | 1019.6 |
| 20260508163054 | 57 | 34 | 2.0 | 9.0 | 0.00 | 0.13 | 0.00 | 53 | 1019.5 |
| 20260508162545 | 57 | 0 | 1.0 | 8.0 | 0.00 | 0.13 | 0.00 | 45 | 1019.5 |
| 20260508162048 | 57 | 65 | 1.0 | 7.0 | 0.00 | 0.13 | 0.00 | 53 | 1019.4 |
| 20260508161551 | 56 | 33 | 1.0 | 7.0 | 0.00 | 0.13 | 0.00 | 47 | 1019.5 |
| 20260508161045 | 56 | 46 | 2.0 | 5.0 | 0.00 | 0.13 | 0.00 | 47 | 1019.5 |
| 20260508160545 | 56 | 36 | 0.0 | 8.0 | 0.00 | 0.13 | 0.00 | 49 | 1019.5 |
| 20260508160056 | 56 | 31 | 0.0 | 8.0 | 0.00 | 0.13 | 0.00 | 45 | 1019.6 |
| 20260508155547 | 55 | 0 | 1.0 | 8.0 | 0.00 | 0.17 | 0.00 | 41 | 1019.5 |
| 20260508155045 | 55 | 0 | 0.0 | 6.0 | 0.00 | 0.17 | 0.00 | 41 | 1019.6 |
| 20260508154554 | 55 | 0 | 0.0 | 6.0 | 0.00 | 0.17 | 0.00 | 44 | 1019.6 |
| 20260508154044 | 54 | 0 | 0.0 | 6.0 | 0.00 | 0.17 | 0.00 | 43 | 1019.5 |
| 20260508153545 | 54 | 0 | 0.0 | 4.0 | 0.00 | 0.17 | 0.00 | 45 | 1019.7 |
| 20260508153051 | 54 | 230 | 0.0 | 9.0 | 0.00 | 0.17 | 0.00 | 43 | 1019.6 |
| 20260508152546 | 54 | 0 | 0.0 | 9.0 | 0.00 | 0.17 | 0.00 | 45 | 1019.5 |
| 20260508152045 | 55 | 0 | 1.0 | 9.0 | 0.00 | 0.17 | 0.00 | 44 | 1019.5 |
| 20260508151555 | 55 | 0 | 0.0 | 9.0 | 0.00 | 0.17 | 0.00 | 43 | 1019.4 |
| 20260508151045 | 54 | 298 | 0.0 | 6.0 | 0.00 | 0.17 | 0.00 | 46 | 1019.4 |
| 20260508150546 | 53 | 51 | 0.0 | 4.0 | 0.00 | 0.17 | 0.00 | 49 | 1019.4 |
| 20260508150052 | 53 | 0 | 0.0 | 4.0 | 0.00 | 0.17 | 0.00 | 51 | 1019.4 |
| 20260508145548 | 52 | 313 | 0.0 | 4.0 | 0.00 | 0.25 | 0.00 | 52 | 1019.5 |
| 20260508145045 | 52 | 0 | 0.0 | 2.0 | 0.00 | 0.25 | 0.00 | 54 | 1019.5 |
| 20260508144554 | 51 | 0 | 0.0 | 3.0 | 0.00 | 0.25 | 0.00 | 58 | 1019.5 |
| 20260508144045 | 50 | 0 | 0.0 | 3.0 | 0.00 | 0.25 | 0.00 | 62 | 1019.5 |
| 20260508143545 | 50 | 0 | 0.0 | 0.0 | 0.00 | 0.25 | 0.00 | 66 | 1019.6 |
| 20260508143053 | 49 | 0 | 0.0 | 5.0 | 0.00 | 0.25 | 0.00 | 72 | 1019.6 |
| 20260508142544 | 48 | 0 | 0.0 | 5.0 | 0.00 | 0.25 | 0.00 | 72 | 1019.6 |
| 20260508142045 | 47 | 0 | 1.0 | 5.0 | 0.00 | 0.25 | 0.00 | 73 | 1019.6 |
| 20260508141554 | 47 | 0 | 0.0 | 3.0 | 0.00 | 0.25 | 0.00 | 76 | 1019.6 |
| 20260508141045 | 46 | 0 | 0.0 | 3.0 | 0.00 | 0.25 | 0.00 | 77 | 1019.6 |
| 20260508140544 | 45 | 0 | 0.0 | 3.0 | 0.00 | 0.25 | 0.00 | 80 | 1019.6 |
| 20260508140051 | 45 | 0 | 0.0 | 6.0 | 0.00 | 0.25 | 0.00 | 83 | 1019.7 |
| 20260508135548 | 44 | 0 | 0.0 | 6.0 | 0.00 | 0.29 | 0.00 | 85 | 1019.8 |
| 20260508135046 | 43 | 0 | 0.0 | 6.0 | 0.00 | 0.29 | 0.00 | 86 | 1019.9 |
| 20260508134558 | 43 | 240 | 0.0 | 6.0 | 0.00 | 0.29 | 0.00 | 88 | 1019.9 |
| 20260508134045 | 42 | 238 | 1.0 | 5.0 | 0.00 | 0.29 | 0.00 | 89 | 1019.8 |
| 20260508133545 | 42 | 0 | 0.0 | 5.0 | 0.00 | 0.29 | 0.00 | 90 | 1019.9 |
| 20260508133048 | 41 | 0 | 0.0 | 4.0 | 0.00 | 0.29 | 0.00 | 91 | 1019.9 |
| 20260508132544 | 41 | 0 | 0.0 | 4.0 | 0.00 | 0.29 | 0.00 | 92 | 1020.1 |
| 20260508132045 | 41 | 0 | 0.0 | 3.0 | 0.00 | 0.29 | 0.00 | 93 | 1019.9 |
| 20260508131600 | 41 | 0 | 0.0 | 4.0 | 0.00 | 0.29 | 0.00 | 94 | 1019.9 |
| 20260508131048 | 40 | 200 | 0.0 | 4.0 | 0.00 | 0.29 | 0.00 | 94 | 1020.0 |
| 20260508130547 | 39 | 0 | 0.0 | 0.0 | 0.00 | 0.29 | 0.00 | 94 | 1020.1 |
| 20260508130108 | 38 | 0 | 0.0 | 0.0 | 0.00 | 0.29 | 0.00 | 94 | 1020.1 |
| 20260508125545 | 38 | 0 | 0.0 | 0.0 | 0.00 | 0.29 | 0.00 | 94 | 1020.3 |
| 20260508125045 | 38 | 0 | 0.0 | 0.0 | 0.00 | 0.29 | 0.00 | 94 | 1020.2 |
| 20260508124558 | 38 | 0 | 0.0 | 0.0 | 0.00 | 0.29 | 0.00 | 94 | 1020.1 |
| 20260508124044 | 38 | 0 | 0.0 | 0.0 | 0.00 | 0.29 | 0.00 | 94 | 1020.1 |
| 20260508123547 | 38 | 0 | 0.0 | 5.0 | 0.00 | 0.29 | 0.00 | 94 | 1020.1 |
| 20260508123054 | 38 | 0 | 0.0 | 9.0 | 0.00 | 0.29 | 0.00 | 94 | 1020.0 |
| 20260508122545 | 38 | 0 | 0.0 | 9.0 | 0.00 | 0.29 | 0.00 | 94 | 1019.9 |
| 20260508122045 | 37 | 38 | 2.0 | 9.0 | 0.00 | 0.29 | 0.00 | 94 | 1019.9 |
| 20260508121603 | 35 | 0 | 0.0 | 8.0 | 0.00 | 0.29 | 0.00 | 93 | 1019.7 |
| 20260508121046 | 34 | 32 | 0.0 | 0.0 | 0.00 | 0.29 | 0.00 | 93 | 1019.6 |
| 20260508120545 | 33 | 0 | 0.0 | 0.0 | 0.00 | 0.29 | 0.00 | 93 | 1019.2 |
| 20260508120057 | 33 | 0 | 0.0 | 0.0 | 0.00 | 0.29 | 0.00 | 93 | 1019.0 |
| 20260508115545 | 34 | 0 | 0.0 | 0.0 | 0.00 | 0.29 | 0.00 | 93 | 1018.9 |
| 20260508115044 | 34 | 0 | 0.0 | 0.0 | 0.00 | 0.29 | 0.00 | 93 | 1018.6 |
| 20260508114600 | 34 | 0 | 0.0 | 0.0 | 0.00 | 0.29 | 0.00 | 92 | 1018.5 |
| 20260508114048 | 34 | 0 | 0.0 | 0.0 | 0.00 | 0.29 | 0.00 | 92 | 1018.6 |
| 20260508113548 | 34 | 0 | 0.0 | 0.0 | 0.00 | 0.29 | 0.00 | 92 | 1018.6 |
| 20260508113110 | 35 | 0 | 0.0 | 0.0 | 0.00 | 0.29 | 0.00 | 93 | 1018.6 |
| 20260508112544 | 35 | 0 | 0.0 | 0.0 | 0.00 | 0.29 | 0.00 | 93 | 1018.5 |
| 20260508112045 | 35 | 0 | 0.0 | 0.0 | 0.00 | 0.29 | 0.00 | 93 | 1018.5 |
| 20260508111557 | 35 | 0 | 0.0 | 3.0 | 0.00 | 0.29 | 0.00 | 93 | 1018.4 |
| 20260508111049 | 35 | 0 | 0.0 | 3.0 | 0.00 | 0.29 | 0.00 | 93 | 1018.4 |
| 20260508110545 | 35 | 335 | 0.0 | 0.0 | 0.00 | 0.29 | 0.00 | 93 | 1018.5 |
| 20260508110057 | 35 | 0 | 0.0 | 0.0 | 0.00 | 0.29 | 0.00 | 93 | 1018.6 |
| 20260508105548 | 34 | 0 | 0.0 | 3.0 | 0.00 | 0.29 | 0.00 | 93 | 1018.4 |
| 20260508105046 | 34 | 0 | 0.0 | 3.0 | 0.00 | 0.29 | 0.00 | 93 | 1018.3 |
| 20260508104620 | 34 | 334 | 0.0 | 0.0 | 0.00 | 0.29 | 0.00 | 93 | 1018.3 |
| 20260508104050 | 34 | 0 | 0.0 | 0.0 | 0.00 | 0.29 | 0.00 | 93 | 1018.1 |
| 20260508103545 | 34 | 0 | 0.0 | 0.0 | 0.00 | 0.29 | 0.00 | 93 | 1017.9 |
| 20260508103100 | 34 | 0 | 0.0 | 0.0 | 0.00 | 0.29 | 0.00 | 93 | 1017.9 |
| 20260508102544 | 34 | 0 | 0.0 | 0.0 | 0.00 | 0.29 | 0.00 | 93 | 1017.9 |
| 20260508102047 | 35 | 0 | 0.0 | 0.0 | 0.00 | 0.29 | 0.00 | 93 | 1017.9 |
| 20260508101552 | 35 | 0 | 0.0 | 0.0 | 0.00 | 0.29 | 0.00 | 93 | 1018.0 |
| 20260508101045 | 35 | 0 | 0.0 | 0.0 | 0.00 | 0.29 | 0.00 | 93 | 1018.0 |
| 20260508100544 | 35 | 0 | 0.0 | 0.0 | 0.00 | 0.29 | 0.00 | 93 | 1017.9 |
| 20260508100049 | 35 | 0 | 0.0 | 0.0 | 0.00 | 0.29 | 0.00 | 93 | 1017.9 |
| 20260508095544 | 35 | 0 | 0.0 | 0.0 | 0.00 | 0.29 | 0.00 | 93 | 1017.8 |
| 20260508095045 | 35 | 0 | 0.0 | 0.0 | 0.00 | 0.29 | 0.00 | 93 | 1017.7 |
| 20260508094555 | 35 | 0 | 0.0 | 0.0 | 0.00 | 0.29 | 0.00 | 93 | 1017.7 |
| 20260508094047 | 35 | 0 | 0.0 | 0.0 | 0.00 | 0.29 | 0.00 | 93 | 1017.9 |
| 20260508093548 | 35 | 0 | 0.0 | 0.0 | 0.00 | 0.29 | 0.00 | 93 | 1017.8 |
| 20260508093057 | 35 | 0 | 0.0 | 0.0 | 0.00 | 0.29 | 0.00 | 92 | 1017.9 |
| 20260508092548 | 35 | 0 | 0.0 | 0.0 | 0.00 | 0.29 | 0.00 | 93 | 1017.9 |
| 20260508092051 | 35 | 0 | 0.0 | 0.0 | 0.00 | 0.29 | 0.00 | 92 | 1017.9 |
| 20260508091556 | 35 | 0 | 0.0 | 0.0 | 0.00 | 0.29 | 0.00 | 92 | 1017.8 |
| 20260508091047 | 35 | 0 | 0.0 | 0.0 | 0.00 | 0.29 | 0.00 | 92 | 1017.8 |
| 20260508090545 | 35 | 0 | 0.0 | 0.0 | 0.00 | 0.29 | 0.00 | 92 | 1017.8 |
| 20260508090107 | 35 | 0 | 0.0 | 0.0 | 0.00 | 0.29 | 0.00 | 92 | 1017.8 |
| 20260508085544 | 35 | 0 | 0.0 | 0.0 | 0.00 | 0.29 | 0.00 | 91 | 1018.0 |
| 20260508085044 | 36 | 0 | 0.0 | 0.0 | 0.00 | 0.29 | 0.00 | 91 | 1018.1 |
| 20260508084553 | 36 | 0 | 0.0 | 0.0 | 0.00 | 0.29 | 0.00 | 91 | 1018.1 |
| 20260508084045 | 36 | 0 | 0.0 | 0.0 | 0.00 | 0.29 | 0.00 | 91 | 1018.2 |
| 20260508083544 | 36 | 0 | 0.0 | 0.0 | 0.00 | 0.29 | 0.00 | 91 | 1018.1 |
| 20260508083108 | 36 | 0 | 0.0 | 0.0 | 0.00 | 0.29 | 0.00 | 90 | 1018.1 |
| 20260508082545 | 36 | 0 | 0.0 | 0.0 | 0.00 | 0.29 | 0.00 | 90 | 1018.4 |
| 20260508082045 | 37 | 0 | 0.0 | 0.0 | 0.00 | 0.29 | 0.00 | 90 | 1018.5 |
| 20260508081558 | 37 | 0 | 0.0 | 0.0 | 0.00 | 0.29 | 0.00 | 91 | 1018.4 |
| 20260508081048 | 37 | 0 | 0.0 | 0.0 | 0.00 | 0.29 | 0.00 | 90 | 1018.5 |
| 20260508080545 | 37 | 0 | 0.0 | 0.0 | 0.00 | 0.29 | 0.00 | 90 | 1018.5 |
| 20260508080047 | 37 | 0 | 0.0 | 0.0 | 0.00 | 0.29 | 0.00 | 90 | 1018.5 |
| 20260508075545 | 37 | 0 | 0.0 | 0.0 | 0.00 | 0.29 | 0.00 | 90 | 1018.4 |
| 20260508075044 | 37 | 0 | 0.0 | 0.0 | 0.00 | 0.29 | 0.00 | 90 | 1018.6 |
| 20260508074552 | 37 | 0 | 0.0 | 0.0 | 0.00 | 0.29 | 0.00 | 91 | 1018.6 |
| 20260508074044 | 37 | 0 | 0.0 | 0.0 | 0.00 | 0.29 | 0.00 | 91 | 1018.9 |
| 20260508073545 | 36 | 0 | 0.0 | 0.0 | 0.00 | 0.29 | 0.00 | 91 | 1019.0 |
| 20260508073058 | 36 | 0 | 0.0 | 0.0 | 0.00 | 0.29 | 0.00 | 90 | 1019.1 |
| 20260508072544 | 36 | 0 | 0.0 | 0.0 | 0.00 | 0.29 | 0.00 | 89 | 1019.1 |
| 20260508072044 | 36 | 0 | 0.0 | 0.0 | 0.00 | 0.29 | 0.00 | 89 | 1018.9 |
| 20260508071600 | 36 | 0 | 0.0 | 0.0 | 0.00 | 0.29 | 0.00 | 89 | 1018.8 |
| 20260508071044 | 37 | 0 | 0.0 | 0.0 | 0.00 | 0.29 | 0.00 | 89 | 1018.7 |
| 20260508070548 | 37 | 0 | 0.0 | 0.0 | 0.00 | 0.29 | 0.00 | 89 | 1018.6 |
| 20260508070138 | 37 | 0 | 0.0 | 0.0 | 0.00 | 0.29 | 0.00 | 89 | 1018.6 |
| 20260508065546 | 37 | 0 | 0.0 | 0.0 | 0.00 | 0.29 | 0.00 | 89 | 1018.6 |
| 20260508065051 | 37 | 0 | 0.0 | 0.0 | 0.00 | 0.29 | 0.00 | 89 | 1018.6 |
| 20260508064607 | 37 | 0 | 0.0 | 0.0 | 0.00 | 0.29 | 0.00 | 89 | 1018.4 |
| 20260508064047 | 37 | 0 | 0.0 | 0.0 | 0.00 | 0.29 | 0.00 | 89 | 1018.6 |
| 20260508063548 | 37 | 0 | 0.0 | 0.0 | 0.00 | 0.29 | 0.00 | 89 | 1018.7 |
| 20260508063053 | 37 | 0 | 0.0 | 0.0 | 0.00 | 0.29 | 0.00 | 89 | 1018.6 |
| 20260508062544 | 38 | 0 | 0.0 | 0.0 | 0.00 | 0.29 | 0.00 | 88 | 1018.8 |
| 20260508062044 | 38 | 0 | 0.0 | 0.0 | 0.00 | 0.29 | 0.00 | 88 | 1018.6 |
| 20260508061603 | 38 | 0 | 0.0 | 0.0 | 0.00 | 0.29 | 0.00 | 88 | 1018.6 |
| 20260508061045 | 39 | 0 | 0.0 | 0.0 | 0.00 | 0.29 | 0.00 | 87 | 1018.6 |
| 20260508060546 | 39 | 0 | 0.0 | 0.0 | 0.00 | 0.29 | 0.00 | 87 | 1018.6 |
| 20260508060051 | 40 | 0 | 0.0 | 0.0 | 0.00 | 0.29 | 0.00 | 86 | 1018.7 |
| 20260508055549 | 40 | 0 | 0.0 | 0.0 | 0.00 | 0.29 | 0.29 | 86 | 1018.6 |
| 20260508055047 | 41 | 0 | 0.0 | 0.0 | 0.00 | 0.29 | 0.29 | 85 | 1018.7 |
| 20260508054553 | 41 | 0 | 0.0 | 0.0 | 0.00 | 0.29 | 0.29 | 84 | 1018.9 |
| 20260508054049 | 42 | 0 | 0.0 | 0.0 | 0.00 | 0.29 | 0.29 | 84 | 1018.8 |
| 20260508053548 | 42 | 0 | 0.0 | 0.0 | 0.00 | 0.29 | 0.29 | 85 | 1019.0 |
| 20260508053102 | 43 | 0 | 0.0 | 1.0 | 0.00 | 0.29 | 0.29 | 83 | 1019.3 |
| 20260508052545 | 43 | 0 | 0.0 | 8.0 | 0.00 | 0.29 | 0.29 | 82 | 1019.4 |
| 20260508052047 | 43 | 0 | 0.0 | 8.0 | 0.00 | 0.29 | 0.29 | 80 | 1019.4 |
| 20260508051551 | 42 | 17 | 0.0 | 3.0 | 0.00 | 0.29 | 0.29 | 78 | 1019.4 |
| 20260508051046 | 42 | 0 | 0.0 | 0.0 | 0.00 | 0.29 | 0.29 | 77 | 1019.1 |
| 20260508050547 | 42 | 0 | 0.0 | 0.0 | 0.00 | 0.29 | 0.29 | 77 | 1018.8 |
| 20260508050059 | 43 | 0 | 0.0 | 4.0 | 0.00 | 0.29 | 0.29 | 77 | 1018.6 |
| 20260508045547 | 42 | 0 | 0.0 | 4.0 | 0.00 | 0.29 | 0.29 | 76 | 1018.4 |
| 20260508045047 | 42 | 30 | 0.0 | 0.0 | 0.00 | 0.29 | 0.29 | 77 | 1018.5 |
| 20260508044551 | 43 | 0 | 0.0 | 0.0 | 0.00 | 0.29 | 0.29 | 76 | 1018.7 |
| 20260508044046 | 43 | 0 | 0.0 | 0.0 | 0.00 | 0.29 | 0.29 | 74 | 1018.3 |
| 20260508043546 | 44 | 0 | 0.0 | 0.0 | 0.00 | 0.29 | 0.29 | 74 | 1018.4 |
| 20260508043101 | 44 | 0 | 0.0 | 0.0 | 0.00 | 0.29 | 0.29 | 72 | 1018.2 |
| 20260508042547 | 45 | 0 | 0.0 | 0.0 | 0.00 | 0.29 | 0.29 | 72 | 1018.2 |
| 20260508042047 | 45 | 0 | 0.0 | 2.0 | 0.00 | 0.29 | 0.29 | 72 | 1018.1 |
| 20260508041554 | 46 | 0 | 0.0 | 2.0 | 0.00 | 0.29 | 0.29 | 70 | 1018.3 |
| 20260508041049 | 46 | 0 | 0.0 | 2.0 | 0.00 | 0.29 | 0.29 | 68 | 1018.3 |
| 20260508040547 | 46 | 0 | 0.0 | 0.0 | 0.00 | 0.29 | 0.29 | 69 | 1018.5 |
| 20260508040050 | 45 | 0 | 0.0 | 4.0 | 0.00 | 0.29 | 0.29 | 69 | 1018.6 |
| 20260508035548 | 45 | 0 | 0.0 | 4.0 | 0.00 | 0.29 | 0.29 | 69 | 1018.7 |
| 20260508035048 | 45 | 0 | 0.0 | 0.0 | 0.00 | 0.29 | 0.29 | 67 | 1018.8 |
| 20260508034555 | 45 | 0 | 0.0 | 0.0 | 0.00 | 0.29 | 0.29 | 67 | 1018.4 |
| 20260508034046 | 45 | 0 | 0.0 | 0.0 | 0.00 | 0.29 | 0.29 | 68 | 1018.2 |
| 20260508033547 | 45 | 0 | 0.0 | 0.0 | 0.00 | 0.29 | 0.29 | 68 | 1018.1 |
| 20260508033050 | 45 | 0 | 0.0 | 0.0 | 0.00 | 0.29 | 0.29 | 69 | 1018.1 |
| 20260508032547 | 45 | 0 | 0.0 | 0.0 | 0.00 | 0.29 | 0.29 | 69 | 1017.9 |
| 20260508032049 | 45 | 0 | 0.0 | 3.0 | 0.00 | 0.29 | 0.29 | 69 | 1017.9 |
| 20260508031554 | 45 | 0 | 0.0 | 3.0 | 0.00 | 0.29 | 0.29 | 68 | 1017.9 |
| 20260508031047 | 45 | 293 | 0.0 | 1.0 | 0.00 | 0.29 | 0.29 | 68 | 1017.8 |
| 20260508030548 | 46 | 0 | 0.0 | 10.0 | 0.00 | 0.29 | 0.29 | 68 | 1017.9 |
| 20260508030058 | 46 | 0 | 0.0 | 10.0 | 0.00 | 0.29 | 0.29 | 67 | 1017.9 |
| 20260508025548 | 46 | 0 | 0.0 | 10.0 | 0.00 | 0.29 | 0.29 | 67 | 1017.9 |
| 20260508025046 | 46 | 317 | 1.0 | 10.0 | 0.00 | 0.29 | 0.29 | 66 | 1017.9 |
| 20260508024558 | 46 | 0 | 0.0 | 2.0 | 0.00 | 0.29 | 0.29 | 66 | 1017.8 |
| 20260508024046 | 46 | 0 | 0.0 | 9.0 | 0.00 | 0.29 | 0.29 | 65 | 1017.9 |
| 20260508023549 | 46 | 0 | 0.0 | 9.0 | 0.00 | 0.29 | 0.29 | 65 | 1017.9 |
| 20260508023051 | 46 | 188 | 1.0 | 6.0 | 0.00 | 0.29 | 0.29 | 65 | 1017.8 |
| 20260508022548 | 46 | 0 | 0.0 | 9.0 | 0.00 | 0.29 | 0.29 | 66 | 1017.9 |
| 20260508022048 | 47 | 302 | 0.0 | 9.0 | 0.00 | 0.29 | 0.29 | 65 | 1018.0 |
| 20260508021550 | 47 | 0 | 1.0 | 9.0 | 0.00 | 0.29 | 0.29 | 64 | 1017.9 |
| 20260508021044 | 48 | 338 | 0.0 | 6.0 | 0.00 | 0.29 | 0.29 | 62 | 1018.0 |
| 20260508020550 | 49 | 296 | 0.0 | 7.0 | 0.00 | 0.29 | 0.29 | 59 | 1018.0 |
| 20260508020051 | 49 | 0 | 0.0 | 15.0 | 0.00 | 0.29 | 0.29 | 56 | 1017.9 |
| 20260508015547 | 50 | 195 | 1.0 | 15.0 | 0.00 | 0.29 | 0.29 | 56 | 1018.1 |
| 20260508015047 | 50 | 0 | 1.0 | 15.0 | 0.00 | 0.29 | 0.29 | 53 | 1018.2 |
| 20260508014550 | 51 | 0 | 0.0 | 5.0 | 0.00 | 0.29 | 0.29 | 52 | 1018.0 |
| 20260508014047 | 51 | 0 | 0.0 | 5.0 | 0.00 | 0.29 | 0.29 | 50 | 1017.9 |
| 20260508013546 | 52 | 0 | 0.0 | 4.0 | 0.00 | 0.29 | 0.29 | 50 | 1017.7 |
| 20260508013105 | 52 | 0 | 0.0 | 6.0 | 0.00 | 0.29 | 0.29 | 49 | 1017.5 |
| 20260508012546 | 53 | 267 | 0.0 | 6.0 | 0.00 | 0.29 | 0.29 | 48 | 1017.5 |
| 20260508012046 | 53 | 0 | 1.0 | 6.0 | 0.00 | 0.29 | 0.29 | 47 | 1017.3 |
| 20260508011551 | 53 | 276 | 0.0 | 3.0 | 0.00 | 0.29 | 0.29 | 47 | 1017.5 |
| 20260508011047 | 53 | 270 | 0.0 | 6.0 | 0.00 | 0.29 | 0.29 | 46 | 1017.5 |
| 20260508010547 | 53 | 0 | 1.0 | 6.0 | 0.00 | 0.29 | 0.29 | 45 | 1017.4 |
| 20260508010050 | 53 | 0 | 1.0 | 6.0 | 0.00 | 0.29 | 0.29 | 44 | 1017.4 |
| 20260508005547 | 53 | 0 | 0.0 | 3.0 | 0.00 | 0.30 | 0.29 | 46 | 1017.1 |
| 20260508005051 | 53 | 0 | 0.0 | 2.0 | 0.00 | 0.30 | 0.29 | 46 | 1017.3 |
| 20260508004547 | 54 | 0 | 0.0 | 0.0 | 0.00 | 0.30 | 0.29 | 48 | 1017.1 |
| 20260508004047 | 54 | 0 | 0.0 | 0.0 | 0.00 | 0.30 | 0.29 | 45 | 1016.9 |
| 20260508003543 | 55 | 0 | 0.0 | 0.0 | 0.00 | 0.30 | 0.29 | 45 | 1016.7 |
| 20260508003049 | 55 | 0 | 0.0 | 0.0 | 0.00 | 0.30 | 0.29 | 40 | 1016.6 |
| 20260508002548 | 55 | 0 | 0.0 | 0.0 | 0.00 | 0.30 | 0.29 | 44 | 1016.4 |
| 20260508002047 | 55 | 0 | 0.0 | 3.0 | 0.00 | 0.30 | 0.29 | 40 | 1016.4 |
| 20260508001550 | 55 | 0 | 0.0 | 3.0 | 0.00 | 0.30 | 0.29 | 39 | 1016.3 |
| 20260508001047 | 55 | 0 | 0.0 | 5.0 | 0.00 | 0.30 | 0.29 | 39 | 1016.5 |
| 20260508000547 | 55 | 0 | 0.0 | 5.0 | 0.00 | 0.30 | 0.29 | 41 | 1016.4 |
| 20260508000053 | 55 | 0 | 0.0 | 4.0 | 0.00 | 0.30 | 0.29 | 41 | 1016.4 |
| 20260507235548 | 55 | 0 | 0.0 | 5.0 | 0.00 | 0.32 | 0.29 | 42 | 1016.4 |
| 20260507235050 | 54 | 0 | 0.0 | 6.0 | 0.00 | 0.32 | 0.29 | 40 | 1016.5 |
| 20260507234548 | 54 | 0 | 0.0 | 9.0 | 0.00 | 0.32 | 0.29 | 43 | 1016.5 |
| 20260507234046 | 53 | 0 | 2.0 | 9.0 | 0.00 | 0.32 | 0.29 | 44 | 1016.6 |
| 20260507233546 | 51 | 277 | 1.0 | 9.0 | 0.00 | 0.32 | 0.29 | 47 | 1016.6 |
| 20260507233055 | 50 | 0 | 0.0 | 0.0 | 0.00 | 0.32 | 0.29 | 53 | 1016.6 |
| 20260507232549 | 50 | 0 | 0.0 | 4.0 | 0.00 | 0.32 | 0.29 | 53 | 1016.5 |
| 20260507232046 | 50 | 0 | 0.0 | 4.0 | 0.00 | 0.32 | 0.29 | 51 | 1016.5 |
| 20260507231550 | 50 | 0 | 0.0 | 0.0 | 0.00 | 0.32 | 0.29 | 61 | 1016.5 |
| 20260507231047 | 50 | 0 | 0.0 | 0.0 | 0.00 | 0.32 | 0.29 | 58 | 1016.6 |
| 20260507230547 | 51 | 0 | 0.0 | 0.0 | 0.00 | 0.32 | 0.29 | 59 | 1016.7 |
| 20260507230058 | 51 | 0 | 0.0 | 0.0 | 0.00 | 0.32 | 0.29 | 57 | 1016.6 |
| 20260507225547 | 51 | 0 | 0.0 | 0.0 | 0.00 | 0.35 | 0.29 | 55 | 1016.6 |
| 20260507225047 | 52 | 0 | 0.0 | 0.0 | 0.00 | 0.35 | 0.29 | 55 | 1016.7 |
| 20260507224554 | 52 | 0 | 0.0 | 0.0 | 0.00 | 0.35 | 0.29 | 55 | 1016.7 |
| 20260507224047 | 52 | 0 | 0.0 | 0.0 | 0.00 | 0.35 | 0.29 | 51 | 1016.6 |
| 20260507223550 | 52 | 0 | 0.0 | 0.0 | 0.00 | 0.35 | 0.29 | 45 | 1016.7 |
| 20260507223050 | 53 | 0 | 0.0 | 0.0 | 0.00 | 0.35 | 0.29 | 47 | 1016.6 |
| 20260507222547 | 53 | 0 | 0.0 | 0.0 | 0.00 | 0.35 | 0.29 | 44 | 1016.7 |
| 20260507222046 | 53 | 0 | 0.0 | 0.0 | 0.00 | 0.35 | 0.29 | 43 | 1016.7 |
| 20260507221553 | 53 | 0 | 0.0 | 1.0 | 0.00 | 0.35 | 0.29 | 45 | 1016.8 |
| 20260507221048 | 53 | 0 | 0.0 | 1.0 | 0.00 | 0.35 | 0.29 | 45 | 1017.0 |
| 20260507220546 | 53 | 0 | 0.0 | 1.0 | 0.00 | 0.35 | 0.29 | 42 | 1017.0 |
| 20260507220058 | 53 | 0 | 0.0 | 0.0 | 0.00 | 0.35 | 0.29 | 42 | 1017.1 |
| 20260507215549 | 53 | 0 | 0.0 | 0.0 | 0.00 | 0.38 | 0.29 | 46 | 1017.1 |
| 20260507215047 | 53 | 0 | 0.0 | 0.0 | 0.00 | 0.38 | 0.29 | 42 | 1017.1 |
| 20260507214550 | 53 | 0 | 0.0 | 0.0 | 0.00 | 0.38 | 0.29 | 41 | 1017.3 |
| 20260507214048 | 53 | 0 | 0.0 | 0.0 | 0.00 | 0.38 | 0.29 | 44 | 1017.3 |
| 20260507213548 | 53 | 0 | 0.0 | 0.0 | 0.00 | 0.38 | 0.29 | 44 | 1017.5 |
| 20260507213059 | 53 | 0 | 0.0 | 0.0 | 0.00 | 0.38 | 0.29 | 42 | 1017.6 |
| 20260507212546 | 53 | 0 | 0.0 | 0.0 | 0.00 | 0.38 | 0.29 | 41 | 1017.6 |
| 20260507212047 | 53 | 0 | 0.0 | 0.0 | 0.00 | 0.38 | 0.29 | 42 | 1017.7 |
| 20260507211547 | 52 | 0 | 0.0 | 3.0 | 0.00 | 0.38 | 0.29 | 41 | 1017.7 |
| 20260507211043 | 52 | 0 | 0.0 | 4.0 | 0.00 | 0.38 | 0.29 | 41 | 1017.7 |
| 20260507210547 | 53 | 0 | 0.0 | 4.0 | 0.00 | 0.38 | 0.29 | 44 | 1017.9 |
| 20260507210048 | 53 | 0 | 0.0 | 4.0 | 0.00 | 0.38 | 0.29 | 42 | 1017.9 |
| 20260507205544 | 53 | 0 | 0.0 | 4.0 | 0.00 | 0.41 | 0.29 | 43 | 1017.9 |
| 20260507205047 | 53 | 0 | 0.0 | 5.0 | 0.00 | 0.41 | 0.29 | 46 | 1018.1 |
| 20260507204555 | 53 | 0 | 1.0 | 5.0 | 0.00 | 0.41 | 0.29 | 42 | 1018.1 |
| 20260507204047 | 53 | 0 | 0.0 | 3.0 | 0.00 | 0.41 | 0.29 | 44 | 1018.1 |
| 20260507203544 | 53 | 0 | 0.0 | 3.0 | 0.00 | 0.41 | 0.29 | 43 | 1018.2 |
| 20260507203048 | 53 | 0 | 0.0 | 3.0 | 0.00 | 0.41 | 0.29 | 42 | 1018.2 |